TimeMST,TemperatureF,Dew PointF,Humidity,Sea Level PressureIn,VisibilityMPH,Wind Direction,Wind SpeedMPH,Gust SpeedMPH,PrecipitationIn,Events,Conditions,WindDirDegrees,DateUTC
12:53 AM,5.0,-7.1,58,30.43,10.0,ESE,15.0,-,N/A,,Mostly Cloudy,120,2013-12-06 07:53:00
1:53 AM,5.0,-7.1,58,30.42,10.0,ESE,17.3,-,N/A,,Overcast,120,2013-12-06 08:53:00
2:53 AM,3.9,-9.0,55,30.44,10.0,ESE,13.8,-,N/A,,Overcast,120,2013-12-06 09:53:00
3:53 AM,3.0,-9.0,57,30.45,10.0,ESE,13.8,-,N/A,,Overcast,120,2013-12-06 10:53:00
4:53 AM,1.9,-11.0,55,30.46,10.0,ESE,12.7,-,N/A,,Overcast,120,2013-12-06 11:53:00
5:53 AM,1.0,-11.9,55,30.48,10.0,ESE,13.8,-,N/A,,Mostly Cloudy,120,2013-12-06 12:53:00
6:53 AM,-0.0,-13.0,54,30.50,10.0,ESE,15.0,-,N/A,,Overcast,120,2013-12-06 13:53:00
7:53 AM,-2.0,-14.1,57,30.51,10.0,ESE,15.0,-,N/A,,Scattered Clouds,120,2013-12-06 14:53:00
8:53 AM,-0.9,-14.1,54,30.52,10.0,ESE,18.4,-,N/A,,Mostly Cloudy,110,2013-12-06 15:53:00
9:53 AM,-0.0,-14.1,52,30.54,10.0,ESE,17.3,-,N/A,,Clear,110,2013-12-06 16:53:00
10:53 AM,1.9,-15.0,45,30.53,10.0,East,15.0,28.8,N/A,,Clear,100,2013-12-06 17:53:00
11:53 AM,3.0,-14.1,45,30.50,10.0,East,16.1,27.6,N/A,,Clear,100,2013-12-06 18:53:00
12:53 PM,3.9,-13.0,46,30.48,10.0,ESE,20.7,-,N/A,,Partly Cloudy,110,2013-12-06 19:53:00
1:53 PM,3.9,-13.0,46,30.46,10.0,ESE,18.4,-,N/A,,Clear,110,2013-12-06 20:53:00
2:53 PM,3.9,-11.9,48,30.45,10.0,East,15.0,-,N/A,,Clear,90,2013-12-06 21:53:00
3:53 PM,3.9,-13.0,46,30.45,10.0,East,9.2,-,N/A,,Clear,100,2013-12-06 22:53:00
4:53 PM,1.9,-14.1,47,30.46,10.0,East,12.7,-,N/A,,Clear,100,2013-12-06 23:53:00
5:53 PM,1.0,-14.1,49,30.48,10.0,ESE,13.8,-,N/A,,Clear,120,2013-12-07 00:53:00
6:53 PM,1.0,-13.0,52,30.48,10.0,ESE,13.8,-,N/A,,Partly Cloudy,110,2013-12-07 01:53:00
7:53 PM,-0.0,-15.0,49,30.50,10.0,ESE,12.7,-,N/A,,Partly Cloudy,110,2013-12-07 02:53:00
8:53 PM,-2.0,-16.1,51,30.50,10.0,ESE,13.8,-,N/A,,Clear,120,2013-12-07 03:53:00
9:53 PM,-2.9,-17.0,51,30.50,10.0,ESE,16.1,-,N/A,,Clear,120,2013-12-07 04:53:00
10:53 PM,-2.9,-18.0,49,30.49,10.0,ESE,18.4,-,N/A,,Clear,120,2013-12-07 05:53:00
11:53 PM,-4.0,-18.0,51,30.49,10.0,ESE,21.9,-,N/A,,Clear,120,2013-12-07 06:53:00